GALAXY 36 (G-36)

Last updated on Wed Sep 17 2025 00:02:51 GMT+0000 (Coordinated Universal Time)

1 54742U 22170B 25259.56605193 -.00000204 00000+0 00000+0 0 9997 2 54742 0.0093 158.3348 0001687 347.8829 324.3175 1.00270605 10031
UTC large
Height (km)
Speed (km/s)
/
Latitude / Longitude
Inclination (degrees)
Orbital Period (minutes)
Azimuth
Elevation
Range (km)
Doppler Factor

Next 0 passes for location: London (51.5072 / 0.1276)

Sorry there are no passes over London.